| time (UTC) | temp F | wind direction | speed MPH | gust MPH | rain 1hr in | rain 24hr in | rain mn in | humidity % | barometer mb |
| 20260903120000 | 77 | 127 | 8.0 | 9.0 | 0.00 | 0.00 | 0.00 | 68 | 1010.8 |
| 20260903115458 | 77 | 109 | 6.0 | 10.0 | 0.00 | 0.00 | 0.00 | 68 | 1010.8 |
| 20260903114956 | 77 | 110 | 6.0 | 10.0 | 0.00 | 0.00 | 0.00 | 68 | 1010.8 |
| 20260903114457 | 77 | 115 | 6.0 | 11.0 | 0.00 | 0.00 | 0.00 | 68 | 1010.8 |
| 20260903113956 | 77 | 128 | 7.0 | 10.0 | 0.00 | 0.00 | 0.00 | 67 | 1010.8 |
| 20260903113449 | 77 | 111 | 7.0 | 10.0 | 0.00 | 0.00 | 0.00 | 67 | 1010.8 |
| 20260903112946 | 77 | 119 | 6.0 | 10.0 | 0.00 | 0.00 | 0.00 | 66 | 1010.8 |
| 20260903112445 | 77 | 109 | 7.0 | 10.0 | 0.00 | 0.00 | 0.00 | 66 | 1010.8 |
| 20260903111946 | 77 | 105 | 7.0 | 10.0 | 0.00 | 0.00 | 0.00 | 65 | 1010.8 |
| 20260903111448 | 77 | 104 | 7.0 | 9.0 | 0.00 | 0.00 | 0.00 | 64 | 1009.8 |
| 20260903110947 | 77 | 109 | 7.0 | 9.0 | 0.00 | 0.00 | 0.00 | 64 | 1009.8 |
| 20260903105946 | 77 | 119 | 6.0 | 8.0 | 0.00 | 0.00 | 0.00 | 64 | 1009.8 |
| 20260903105444 | 77 | 114 | 6.0 | 8.0 | 0.00 | 0.00 | 0.00 | 64 | 1009.8 |
| 20260903104937 | 78 | 109 | 6.0 | 8.0 | 0.00 | 0.00 | 0.00 | 64 | 1009.8 |
| 20260903104439 | 77 | 116 | 6.0 | 8.0 | 0.00 | 0.00 | 0.00 | 63 | 1009.8 |
| 20260903103937 | 78 | 119 | 7.0 | 8.0 | 0.00 | 0.00 | 0.00 | 63 | 1009.8 |
| 20260903103439 | 77 | 115 | 7.0 | 9.0 | 0.00 | 0.00 | 0.00 | 63 | 1009.8 |
| 20260903102941 | 77 | 115 | 7.0 | 9.0 | 0.00 | 0.00 | 0.00 | 63 | 1009.8 |
| 20260903102439 | 78 | 126 | 6.0 | 8.0 | 0.00 | 0.00 | 0.00 | 62 | 1009.8 |
| 20260903101941 | 78 | 109 | 6.0 | 7.0 | 0.00 | 0.00 | 0.00 | 62 | 1009.8 |
| 20260903101439 | 78 | 110 | 6.0 | 5.0 | 0.00 | 0.00 | 0.00 | 62 | 1009.8 |
| 20260903100932 | 78 | 117 | 3.0 | 5.0 | 0.00 | 0.00 | 0.00 | 62 | 1009.8 |
| 20260903100434 | 78 | 116 | 0.0 | 6.0 | 0.00 | 0.00 | 0.00 | 61 | 1009.8 |
| 20260903095936 | 78 | 116 | 3.0 | 7.0 | 0.00 | 0.00 | 0.00 | 61 | 1009.8 |
| 20260903095435 | 78 | 116 | 5.0 | 7.0 | 0.00 | 0.00 | 0.00 | 60 | 1009.8 |
| 20260903094937 | 78 | 119 | 6.0 | 6.0 | 0.00 | 0.00 | 0.00 | 60 | 1009.8 |
| 20260903094438 | 78 | 127 | 5.0 | 6.0 | 0.00 | 0.00 | 0.00 | 60 | 1009.8 |
| 20260903093937 | 78 | 162 | 4.0 | 0.0 | 0.00 | 0.00 | 0.00 | 60 | 1009.8 |
| 20260903092941 | 78 | 170 | 0.0 | 0.0 | 0.00 | 0.00 | 0.00 | 59 | 1009.8 |
| 20260903091941 | 78 | 170 | 0.0 | 0.0 | 0.00 | 0.00 | 0.00 | 58 | 1009.8 |
| 20260903091443 | 78 | 170 | 0.0 | 0.0 | 0.00 | 0.00 | 0.00 | 58 | 1009.8 |
| 20260903090942 | 78 | 170 | 0.0 | 0.0 | 0.00 | 0.00 | 0.00 | 58 | 1009.8 |
| 20260903090444 | 78 | 170 | 0.0 | 0.0 | 0.00 | 0.00 | 0.00 | 58 | 1009.8 |
| 20260903085945 | 78 | 170 | 0.0 | 0.0 | 0.00 | 0.00 | 0.00 | 57 | 1009.8 |
| 20260903085444 | 78 | 170 | 0.0 | 0.0 | 0.00 | 0.00 | 0.00 | 56 | 1009.8 |
| 20260903084946 | 79 | 170 | 0.0 | 3.0 | 0.00 | 0.00 | 0.00 | 56 | 1009.8 |
| 20260903084448 | 78 | 170 | 0.0 | 6.0 | 0.00 | 0.00 | 0.00 | 56 | 1010.8 |
| 20260903083946 | 78 | 170 | 0.0 | 4.0 | 0.00 | 0.00 | 0.00 | 55 | 1010.8 |
| 20260903083448 | 79 | 172 | 0.0 | 4.0 | 0.00 | 0.00 | 0.00 | 55 | 1010.8 |
| 20260903082950 | 79 | 172 | 0.0 | 3.0 | 0.00 | 0.00 | 0.00 | 54 | 1010.8 |
| 20260903082449 | 79 | 173 | 0.0 | 0.0 | 0.00 | 0.00 | 0.00 | 54 | 1010.8 |
| 20260903081951 | 79 | 173 | 0.0 | 4.0 | 0.00 | 0.00 | 0.00 | 53 | 1010.8 |
| 20260903081452 | 79 | 173 | 0.0 | 4.0 | 0.00 | 0.00 | 0.00 | 52 | 1010.8 |
| 20260903080951 | 79 | 173 | 3.0 | 3.0 | 0.00 | 0.00 | 0.00 | 52 | 1010.8 |
| 20260903080453 | 79 | 171 | 0.0 | 5.0 | 0.00 | 0.00 | 0.00 | 51 | 1010.8 |
| 20260903075955 | 79 | 155 | 0.0 | 4.0 | 0.00 | 0.00 | 0.00 | 51 | 1009.8 |
| 20260903075453 | 79 | 163 | 3.0 | 4.0 | 0.00 | 0.00 | 0.00 | 51 | 1009.8 |
| 20260903074955 | 79 | 129 | 3.0 | 6.0 | 0.00 | 0.00 | 0.00 | 50 | 1009.8 |
| 20260903074457 | 79 | 129 | 0.0 | 6.0 | 0.00 | 0.00 | 0.00 | 50 | 1010.8 |
| 20260903073951 | 79 | 141 | 0.0 | 5.0 | 0.00 | 0.00 | 0.00 | 49 | 1010.8 |
| 20260903073452 | 79 | 167 | 3.0 | 4.0 | 0.00 | 0.00 | 0.00 | 49 | 1010.8 |
| 20260903072949 | 79 | 145 | 3.0 | 4.0 | 0.00 | 0.00 | 0.00 | 48 | 1009.8 |
| 20260903072448 | 79 | 147 | 0.0 | 4.0 | 0.00 | 0.00 | 0.00 | 47 | 1009.8 |
| 20260903071950 | 80 | 146 | 0.0 | 4.0 | 0.00 | 0.00 | 0.00 | 47 | 1009.8 |
| 20260903071452 | 80 | 146 | 3.0 | 4.0 | 0.00 | 0.00 | 0.00 | 47 | 1010.8 |
| 20260903070950 | 80 | 143 | 3.0 | 6.0 | 0.00 | 0.00 | 0.00 | 47 | 1010.8 |
| 20260903070452 | 80 | 131 | 3.0 | 6.0 | 0.00 | 0.00 | 0.00 | 47 | 1010.8 |
| 20260903065954 | 80 | 126 | 0.0 | 6.0 | 0.00 | 0.00 | 0.00 | 46 | 1010.8 |
| 20260903065453 | 80 | 165 | 3.0 | 7.0 | 0.00 | 0.00 | 0.00 | 46 | 1010.8 |
| 20260903064954 | 80 | 131 | 0.0 | 7.0 | 0.00 | 0.00 | 0.00 | 45 | 1010.8 |
| 20260903064456 | 80 | 120 | 4.0 | 8.0 | 0.00 | 0.00 | 0.00 | 45 | 1010.8 |
| 20260903063955 | 80 | 133 | 5.0 | 7.0 | 0.00 | 0.00 | 0.00 | 45 | 1010.8 |
| 20260903063457 | 80 | 148 | 4.0 | 7.0 | 0.00 | 0.00 | 0.00 | 44 | 1010.8 |
| 20260903062959 | 80 | 123 | 4.0 | 8.0 | 0.00 | 0.00 | 0.00 | 44 | 1010.8 |
| 20260903062457 | 80 | 130 | 5.0 | 11.0 | 0.00 | 0.00 | 0.00 | 44 | 1010.8 |
| 20260903061959 | 80 | 125 | 7.0 | 11.0 | 0.00 | 0.00 | 0.00 | 44 | 1010.8 |
| 20260903061456 | 81 | 129 | 5.0 | 10.0 | 0.00 | 0.00 | 0.00 | 43 | 1010.8 |
| 20260903060955 | 81 | 131 | 5.0 | 10.0 | 0.00 | 0.00 | 0.00 | 43 | 1010.8 |
| 20260903060457 | 81 | 133 | 5.0 | 12.0 | 0.00 | 0.00 | 0.00 | 43 | 1010.8 |
| 20260903055959 | 81 | 115 | 6.0 | 10.0 | 0.00 | 0.00 | 0.00 | 42 | 1010.8 |
| 20260903055457 | 81 | 125 | 6.0 | 13.0 | 0.00 | 0.00 | 0.00 | 42 | 1010.8 |
| 20260903054959 | 81 | 124 | 9.0 | 10.0 | 0.00 | 0.00 | 0.00 | 41 | 1010.8 |
| 20260903054501 | 82 | 118 | 5.0 | 13.0 | 0.00 | 0.00 | 0.00 | 40 | 1010.8 |
| 20260903053955 | 82 | 144 | 7.0 | 12.0 | 0.00 | 0.00 | 0.00 | 40 | 1010.8 |
| 20260903053457 | 82 | 135 | 8.0 | 11.0 | 0.00 | 0.00 | 0.00 | 39 | 1010.8 |
| 20260903052958 | 82 | 129 | 8.0 | 12.0 | 0.00 | 0.00 | 0.00 | 39 | 1010.8 |
| 20260903052453 | 83 | 162 | 5.0 | 10.0 | 0.00 | 0.00 | 0.00 | 38 | 1010.8 |
| 20260903051950 | 83 | 133 | 7.0 | 10.0 | 0.00 | 0.00 | 0.00 | 38 | 1010.8 |
| 20260903051451 | 83 | 128 | 5.0 | 10.0 | 0.00 | 0.00 | 0.00 | 38 | 1010.8 |
| 20260903050950 | 83 | 117 | 8.0 | 13.0 | 0.00 | 0.00 | 0.00 | 37 | 1010.8 |
| 20260903050452 | 83 | 108 | 10.0 | 11.0 | 0.00 | 0.00 | 0.00 | 37 | 1010.8 |
| 20260903045954 | 83 | 109 | 7.0 | 12.0 | 0.00 | 0.00 | 0.00 | 36 | 1010.8 |
| 20260903045452 | 83 | 131 | 6.0 | 10.0 | 0.00 | 0.00 | 0.00 | 36 | 1010.8 |
| 20260903044954 | 84 | 111 | 8.0 | 11.0 | 0.00 | 0.00 | 0.00 | 36 | 1010.8 |
| 20260903044456 | 84 | 113 | 8.0 | 11.0 | 0.00 | 0.00 | 0.00 | 35 | 1010.8 |
| 20260903043955 | 84 | 119 | 5.0 | 10.0 | 0.00 | 0.00 | 0.00 | 35 | 1010.8 |
| 20260903043456 | 84 | 129 | 9.0 | 13.0 | 0.00 | 0.00 | 0.00 | 34 | 1010.8 |
| 20260903042958 | 84 | 128 | 7.0 | 11.0 | 0.00 | 0.00 | 0.00 | 35 | 1010.8 |
| 20260903042457 | 85 | 116 | 10.0 | 12.0 | 0.00 | 0.00 | 0.00 | 34 | 1010.8 |
| 20260903041959 | 85 | 112 | 7.0 | 13.0 | 0.00 | 0.00 | 0.00 | 33 | 1010.8 |
| 20260903041501 | 85 | 130 | 9.0 | 12.0 | 0.00 | 0.00 | 0.00 | 32 | 1010.8 |
| 20260903040959 | 85 | 132 | 9.0 | 10.0 | 0.00 | 0.00 | 0.00 | 32 | 1010.8 |
| 20260903040457 | 86 | 129 | 7.0 | 11.0 | 0.00 | 0.00 | 0.00 | 31 | 1010.8 |
| 20260903035959 | 86 | 127 | 8.0 | 12.0 | 0.00 | 0.00 | 0.00 | 31 | 1010.8 |
| 20260903035457 | 86 | 118 | 7.0 | 11.0 | 0.00 | 0.00 | 0.00 | 30 | 1010.8 |
| 20260903034935 | 86 | 124 | 5.0 | 10.0 | 0.00 | 0.00 | 0.00 | 30 | 1010.8 |
| 20260903034436 | 87 | 125 | 7.0 | 14.0 | 0.00 | 0.00 | 0.00 | 29 | 1010.8 |
| 20260903033935 | 87 | 111 | 10.0 | 13.0 | 0.00 | 0.00 | 0.00 | 29 | 1010.8 |
| 20260903033437 | 87 | 155 | 10.0 | 14.0 | 0.00 | 0.00 | 0.00 | 28 | 1010.8 |
| 20260903032939 | 87 | 128 | 10.0 | 15.0 | 0.00 | 0.00 | 0.00 | 28 | 1010.8 |
| 20260903032433 | 87 | 132 | 7.0 | 15.0 | 0.00 | 0.00 | 0.00 | 28 | 1010.8 |
| 20260903031934 | 87 | 123 | 11.0 | 12.0 | 0.00 | 0.00 | 0.00 | 28 | 1010.8 |
| 20260903031436 | 87 | 116 | 8.0 | 15.0 | 0.00 | 0.00 | 0.00 | 27 | 1010.8 |
| 20260903030930 | 88 | 112 | 10.0 | 18.0 | 0.00 | 0.00 | 0.00 | 27 | 1010.8 |
| 20260903030427 | 88 | 118 | 12.0 | 16.0 | 0.00 | 0.00 | 0.00 | 26 | 1010.8 |
| 20260903025928 | 88 | 98 | 12.0 | 15.0 | 0.00 | 0.00 | 0.00 | 25 | 1010.8 |
| 20260903025427 | 88 | 119 | 10.0 | 13.0 | 0.00 | 0.00 | 0.00 | 24 | 1010.8 |
| 20260903024929 | 88 | 113 | 11.0 | 12.0 | 0.00 | 0.00 | 0.00 | 24 | 1009.8 |
| 20260903024431 | 89 | 115 | 10.0 | 13.0 | 0.00 | 0.00 | 0.00 | 23 | 1009.8 |
| 20260903023925 | 89 | 142 | 10.0 | 10.0 | 0.00 | 0.00 | 0.00 | 23 | 1009.8 |
| 20260903023426 | 89 | 132 | 6.0 | 14.0 | 0.00 | 0.00 | 0.00 | 23 | 1009.8 |
| 20260903022928 | 89 | 108 | 12.0 | 14.0 | 0.00 | 0.00 | 0.00 | 22 | 1009.8 |
| 20260903022427 | 89 | 91 | 9.0 | 13.0 | 0.00 | 0.00 | 0.00 | 22 | 1009.8 |
| 20260903021929 | 89 | 128 | 6.0 | 13.0 | 0.00 | 0.00 | 0.00 | 22 | 1009.8 |
| 20260903021421 | 90 | 118 | 10.0 | 12.0 | 0.00 | 0.00 | 0.00 | 22 | 1009.8 |
| 20260903020920 | 90 | 112 | 8.0 | 12.0 | 0.00 | 0.00 | 0.00 | 22 | 1009.8 |
| 20260903020422 | 90 | 119 | 9.0 | 14.0 | 0.00 | 0.00 | 0.00 | 22 | 1009.8 |
| 20260903015924 | 90 | 164 | 10.0 | 11.0 | 0.00 | 0.00 | 0.00 | 21 | 1009.8 |
| 20260903015418 | 90 | 122 | 7.0 | 15.0 | 0.00 | 0.00 | 0.00 | 21 | 1009.8 |
| 20260903014919 | 90 | 126 | 11.0 | 17.0 | 0.00 | 0.00 | 0.00 | 20 | 1009.8 |
| 20260903014421 | 90 | 132 | 10.0 | 14.0 | 0.00 | 0.00 | 0.00 | 19 | 1009.8 |
| 20260903013920 | 91 | 128 | 11.0 | 15.0 | 0.00 | 0.00 | 0.00 | 18 | 1009.8 |
| 20260903013422 | 91 | 115 | 8.0 | 15.0 | 0.00 | 0.00 | 0.00 | 18 | 1008.8 |
| 20260903012923 | 92 | 129 | 10.0 | 15.0 | 0.00 | 0.00 | 0.00 | 17 | 1008.8 |
| 20260903012417 | 92 | 125 | 9.0 | 17.0 | 0.00 | 0.00 | 0.00 | 17 | 1008.8 |
| 20260903011919 | 93 | 94 | 9.0 | 13.0 | 0.00 | 0.00 | 0.00 | 17 | 1008.8 |
| 20260903011421 | 93 | 108 | 8.0 | 18.0 | 0.00 | 0.00 | 0.00 | 17 | 1008.8 |
| 20260903010919 | 93 | 108 | 13.0 | 13.0 | 0.00 | 0.00 | 0.00 | 17 | 1008.8 |
| 20260903010421 | 93 | 111 | 10.0 | 16.0 | 0.00 | 0.00 | 0.00 | 17 | 1008.8 |
| 20260903005923 | 93 | 128 | 12.0 | 14.0 | 0.00 | 0.00 | 0.00 | 17 | 1008.8 |
| 20260903005422 | 93 | 154 | 10.0 | 21.0 | 0.00 | 0.00 | 0.00 | 17 | 1008.8 |
| 20260903004923 | 94 | 137 | 13.0 | 18.0 | 0.00 | 0.00 | 0.00 | 17 | 1008.8 |
| 20260903004425 | 94 | 129 | 11.0 | 11.0 | 0.00 | 0.00 | 0.00 | 16 | 1008.8 |
| 20260903003923 | 95 | 242 | 7.0 | 11.0 | 0.00 | 0.00 | 0.00 | 16 | 1008.8 |
| 20260903003425 | 96 | 125 | 8.0 | 12.0 | 0.00 | 0.00 | 0.00 | 16 | 1008.8 |
| 20260903002927 | 96 | 127 | 7.0 | 12.0 | 0.00 | 0.00 | 0.00 | 16 | 1008.8 |
| 20260903002426 | 96 | 107 | 5.0 | 10.0 | 0.00 | 0.00 | 0.00 | 16 | 1008.8 |
| 20260903001927 | 96 | 103 | 5.0 | 11.0 | 0.00 | 0.00 | 0.00 | 16 | 1008.8 |
| 20260903001425 | 96 | 158 | 4.0 | 11.0 | 0.00 | 0.00 | 0.00 | 13 | 1008.8 |
| 20260903000923 | 96 | 98 | 8.0 | 8.0 | 0.00 | 0.00 | 0.00 | 13 | 1008.8 |
| 20260903000425 | 97 | 121 | 4.0 | 8.0 | 0.00 | 0.00 | 0.00 | 13 | 1008.8 |
| 20260902235927 | 97 | 207 | 4.0 | 11.0 | 0.00 | 0.00 | 0.00 | 13 | 1008.8 |
| 20260902235426 | 97 | 114 | 6.0 | 12.0 | 0.00 | 0.00 | 0.00 | 13 | 1008.8 |
| 20260902234928 | 97 | 63 | 8.0 | 13.0 | 0.00 | 0.00 | 0.00 | 13 | 1008.8 |
| 20260902234429 | 96 | 107 | 10.0 | 12.0 | 0.00 | 0.00 | 0.00 | 13 | 1008.8 |
| 20260902233928 | 97 | 158 | 4.0 | 12.0 | 0.00 | 0.00 | 0.00 | 16 | 1008.8 |
| 20260902233430 | 97 | 109 | 8.0 | 7.0 | 0.00 | 0.00 | 0.00 | 16 | 1008.8 |
| 20260902232927 | 97 | 118 | 5.0 | 9.0 | 0.00 | 0.00 | 0.00 | 16 | 1008.8 |
| 20260902232425 | 97 | 109 | 5.0 | 12.0 | 0.00 | 0.00 | 0.00 | 16 | 1008.8 |
| 20260902231927 | 97 | 135 | 8.0 | 10.0 | 0.00 | 0.00 | 0.00 | 16 | 1008.8 |
| 20260902231429 | 98 | 317 | 3.0 | 11.0 | 0.00 | 0.00 | 0.00 | 15 | 1008.8 |
| 20260902230928 | 97 | 96 | 6.0 | 11.0 | 0.00 | 0.00 | 0.00 | 16 | 1008.8 |
| 20260902230430 | 97 | 122 | 5.0 | 17.0 | 0.00 | 0.00 | 0.00 | 16 | 1008.8 |
| 20260902225931 | 97 | 100 | 13.0 | 8.0 | 0.00 | 0.00 | 0.00 | 16 | 1008.8 |
| 20260902225430 | 97 | 78 | 4.0 | 7.0 | 0.00 | 0.00 | 0.00 | 16 | 1008.8 |
| 20260902224434 | 97 | 114 | 7.0 | 12.0 | 0.00 | 0.00 | 0.00 | 13 | 1008.8 |
| 20260902223932 | 98 | 285 | 5.0 | 12.0 | 0.00 | 0.00 | 0.00 | 13 | 1008.8 |
| 20260902223434 | 97 | 70 | 9.0 | 10.0 | 0.00 | 0.00 | 0.00 | 13 | 1008.8 |
| 20260902222936 | 98 | 346 | 4.0 | 11.0 | 0.00 | 0.00 | 0.00 | 13 | 1008.8 |
| 20260902222435 | 97 | 45 | 8.0 | 10.0 | 0.00 | 0.00 | 0.00 | 13 | 1008.8 |
| 20260902221937 | 98 | 63 | 4.0 | 10.0 | 0.00 | 0.00 | 0.00 | 13 | 1008.8 |
| 20260902221438 | 99 | 235 | 4.0 | 14.0 | 0.00 | 0.00 | 0.00 | 13 | 1008.8 |
| 20260902220937 | 98 | 70 | 5.0 | 9.0 | 0.00 | 0.00 | 0.00 | 13 | 1008.8 |
| 20260902215941 | 98 | 144 | 4.0 | 10.0 | 0.00 | 0.00 | 0.00 | 15 | 1008.8 |
| 20260902215439 | 97 | 87 | 6.0 | 8.0 | 0.00 | 0.00 | 0.00 | 15 | 1008.8 |
| 20260902214941 | 97 | 356 | 5.0 | 8.0 | 0.00 | 0.00 | 0.00 | 16 | 1008.8 |
| 20260902214438 | 98 | 41 | 5.0 | 9.0 | 0.00 | 0.00 | 0.00 | 15 | 1008.8 |
| 20260902213937 | 99 | 334 | 4.0 | 11.0 | 0.00 | 0.00 | 0.00 | 15 | 1008.8 |
| 20260902213434 | 97 | 130 | 8.0 | 8.0 | 0.00 | 0.00 | 0.00 | 16 | 1009.8 |
| 20260902212930 | 97 | 356 | 3.0 | 10.0 | 0.00 | 0.00 | 0.00 | 16 | 1009.8 |
| 20260902212429 | 96 | 25 | 7.0 | 11.0 | 0.00 | 0.00 | 0.00 | 16 | 1009.8 |
| 20260902211931 | 97 | 265 | 5.0 | 10.0 | 0.00 | 0.00 | 0.00 | 16 | 1009.8 |
| 20260902211433 | 98 | 158 | 5.0 | 11.0 | 0.00 | 0.00 | 0.00 | 15 | 1009.8 |
| 20260902210927 | 97 | 100 | 4.0 | 7.0 | 0.00 | 0.00 | 0.00 | 16 | 1009.8 |
| 20260902210429 | 97 | 93 | 4.0 | 9.0 | 0.00 | 0.00 | 0.00 | 16 | 1009.8 |
| 20260902205931 | 96 | 334 | 4.0 | 10.0 | 0.00 | 0.00 | 0.00 | 16 | 1009.8 |
| 20260902205429 | 96 | 25 | 4.0 | 10.0 | 0.00 | 0.00 | 0.00 | 16 | 1009.8 |
| 20260902204931 | 96 | 44 | 7.0 | 11.0 | 0.00 | 0.00 | 0.00 | 16 | 1009.8 |
| 20260902204428 | 98 | 13 | 3.0 | 11.0 | 0.00 | 0.00 | 0.00 | 15 | 1009.8 |
| 20260902203927 | 97 | 45 | 5.0 | 12.0 | 0.00 | 0.00 | 0.00 | 16 | 1009.8 |
| 20260902203428 | 96 | 71 | 7.0 | 9.0 | 0.00 | 0.00 | 0.00 | 16 | 1009.8 |
| 20260902202930 | 97 | 320 | 5.0 | 10.0 | 0.00 | 0.00 | 0.00 | 16 | 1009.8 |
| 20260902202429 | 97 | 263 | 5.0 | 10.0 | 0.00 | 0.00 | 0.00 | 16 | 1009.8 |
| 20260902201931 | 97 | 165 | 4.0 | 15.0 | 0.00 | 0.00 | 0.00 | 16 | 1009.8 |
| 20260902201433 | 96 | 62 | 5.0 | 12.0 | 0.00 | 0.00 | 0.00 | 16 | 1009.8 |
| 20260902200926 | 96 | 22 | 7.0 | 8.0 | 0.00 | 0.00 | 0.00 | 16 | 1009.8 |
| 20260902200428 | 95 | 34 | 5.0 | 11.0 | 0.00 | 0.00 | 0.00 | 16 | 1010.8 |
| 20260902195930 | 96 | 273 | 5.0 | 12.0 | 0.00 | 0.00 | 0.00 | 16 | 1010.8 |
| 20260902195429 | 95 | 115 | 4.0 | 10.0 | 0.00 | 0.00 | 0.00 | 16 | 1010.8 |
| 20260902194926 | 96 | 31 | 6.0 | 8.0 | 0.00 | 0.00 | 0.00 | 16 | 1010.8 |
| 20260902194423 | 96 | 52 | 4.0 | 7.0 | 0.00 | 0.00 | 0.00 | 16 | 1010.8 |
| 20260902193917 | 96 | 118 | 5.0 | 9.0 | 0.00 | 0.00 | 0.00 | 16 | 1010.8 |
| 20260902193419 | 95 | 110 | 0.0 | 8.0 | 0.00 | 0.00 | 0.00 | 16 | 1010.8 |
| 20260902192921 | 96 | 136 | 4.0 | 10.0 | 0.00 | 0.00 | 0.00 | 16 | 1010.8 |
| 20260902192420 | 95 | 223 | 5.0 | 10.0 | 0.00 | 0.00 | 0.00 | 16 | 1010.8 |
| 20260902191922 | 96 | 43 | 4.0 | 9.0 | 0.00 | 0.00 | 0.00 | 16 | 1010.8 |
| 20260902191423 | 95 | 16 | 4.0 | 11.0 | 0.00 | 0.00 | 0.00 | 16 | 1010.8 |
| 20260902190917 | 95 | 347 | 5.0 | 10.0 | 0.00 | 0.00 | 0.00 | 16 | 1010.8 |
| 20260902190419 | 94 | 10 | 5.0 | 8.0 | 0.00 | 0.00 | 0.00 | 17 | 1011.8 |
| 20260902185921 | 95 | 295 | 3.0 | 7.0 | 0.00 | 0.00 | 0.00 | 16 | 1011.8 |
| 20260902185419 | 94 | 25 | 4.0 | 10.0 | 0.00 | 0.00 | 0.00 | 17 | 1011.8 |
| 20260902184921 | 95 | 162 | 5.0 | 9.0 | 0.00 | 0.00 | 0.00 | 16 | 1011.8 |
| 20260902184423 | 95 | 109 | 6.0 | 10.0 | 0.00 | 0.00 | 0.00 | 16 | 1011.8 |
| 20260902183917 | 95 | 8 | 6.0 | 13.0 | 0.00 | 0.00 | 0.00 | 16 | 1011.8 |
| 20260902183419 | 95 | 5 | 6.0 | 8.0 | 0.00 | 0.00 | 0.00 | 16 | 1011.8 |
| 20260902182921 | 94 | 12 | 4.0 | 10.0 | 0.00 | 0.00 | 0.00 | 17 | 1011.8 |
| 20260902182415 | 94 | 10 | 4.0 | 10.0 | 0.00 | 0.00 | 0.00 | 17 | 1011.8 |
| 20260902181917 | 94 | 103 | 7.0 | 9.0 | 0.00 | 0.00 | 0.00 | 17 | 1011.8 |
| 20260902181419 | 95 | 114 | 5.0 | 9.0 | 0.00 | 0.00 | 0.00 | 17 | 1011.8 |
| 20260902180917 | 94 | 351 | 5.0 | 8.0 | 0.00 | 0.00 | 0.00 | 17 | 1011.8 |
| 20260902180419 | 94 | 85 | 0.0 | 11.0 | 0.00 | 0.00 | 0.00 | 17 | 1012.8 |
| 20260902175917 | 94 | 91 | 6.0 | 4.0 | 0.00 | 0.00 | 0.00 | 17 | 1012.8 |
| 20260902175415 | 94 | 113 | 0.0 | 12.0 | 0.00 | 0.00 | 0.00 | 17 | 1012.8 |
| 20260902174917 | 94 | 101 | 0.0 | 6.0 | 0.00 | 0.00 | 0.00 | 17 | 1012.8 |
| 20260902174419 | 94 | 12 | 3.0 | 8.0 | 0.00 | 0.00 | 0.00 | 17 | 1012.8 |
| 20260902173917 | 93 | 278 | 3.0 | 8.0 | 0.00 | 0.00 | 0.00 | 17 | 1012.8 |
| 20260902173419 | 94 | 114 | 5.0 | 9.0 | 0.00 | 0.00 | 0.00 | 17 | 1012.8 |
| 20260902172921 | 94 | 335 | 3.0 | 8.0 | 0.00 | 0.00 | 0.00 | 17 | 1012.8 |
| 20260902172419 | 94 | 114 | 4.0 | 11.0 | 0.00 | 0.00 | 0.00 | 17 | 1012.8 |
| 20260902171921 | 92 | 114 | 9.0 | 12.0 | 0.00 | 0.00 | 0.00 | 18 | 1012.8 |
| 20260902171423 | 94 | 88 | 5.0 | 10.0 | 0.00 | 0.00 | 0.00 | 17 | 1012.8 |
| 20260902170922 | 92 | 113 | 7.0 | 10.0 | 0.00 | 0.00 | 0.00 | 18 | 1012.8 |
| 20260902170424 | 92 | 109 | 7.0 | 5.0 | 0.00 | 0.00 | 0.00 | 18 | 1012.8 |
| 20260902165925 | 93 | 76 | 4.0 | 7.0 | 0.00 | 0.00 | 0.00 | 18 | 1012.8 |
| 20260902165424 | 93 | 112 | 4.0 | 7.0 | 0.00 | 0.00 | 0.00 | 18 | 1012.8 |
| 20260902164926 | 92 | 119 | 0.0 | 8.0 | 0.00 | 0.00 | 0.00 | 18 | 1012.8 |
| 20260902164428 | 92 | 118 | 3.0 | 7.0 | 0.00 | 0.00 | 0.00 | 18 | 1012.8 |
| 20260902163926 | 92 | 140 | 4.0 | 7.0 | 0.00 | 0.00 | 0.00 | 18 | 1012.8 |
| 20260902163428 | 90 | 88 | 4.0 | 6.0 | 0.00 | 0.00 | 0.00 | 19 | 1013.8 |
| 20260902162930 | 91 | 116 | 0.0 | 11.0 | 0.00 | 0.00 | 0.00 | 19 | 1013.8 |
| 20260902162429 | 90 | 88 | 9.0 | 7.0 | 0.00 | 0.00 | 0.00 | 20 | 1013.8 |
| 20260902161930 | 91 | 351 | 4.0 | 8.0 | 0.00 | 0.00 | 0.00 | 19 | 1013.8 |
| 20260902161432 | 90 | 79 | 5.0 | 5.0 | 0.00 | 0.00 | 0.00 | 20 | 1013.8 |
| 20260902160926 | 89 | 347 | 4.0 | 7.0 | 0.00 | 0.00 | 0.00 | 21 | 1013.8 |
| 20260902160428 | 89 | 17 | 5.0 | 10.0 | 0.00 | 0.00 | 0.00 | 22 | 1013.8 |
| 20260902155930 | 90 | 125 | 5.0 | 7.0 | 0.00 | 0.00 | 0.00 | 21 | 1013.8 |
| 20260902154916 | 90 | 209 | 3.0 | 6.0 | 0.00 | 0.00 | 0.00 | 23 | 1013.8 |
| 20260902154417 | 89 | 336 | 0.0 | 5.0 | 0.00 | 0.00 | 0.00 | 23 | 1013.8 |
| 20260902153912 | 89 | 356 | 0.0 | 7.0 | 0.00 | 0.00 | 0.00 | 25 | 1013.8 |
| 20260902153413 | 89 | 122 | 0.0 | 6.0 | 0.00 | 0.00 | 0.00 | 26 | 1013.8 |
| 20260902152915 | 88 | 125 | 0.0 | 7.0 | 0.00 | 0.00 | 0.00 | 25 | 1013.8 |
| 20260902152414 | 87 | 126 | 4.0 | 7.0 | 0.00 | 0.00 | 0.00 | 27 | 1013.8 |
| 20260902151916 | 88 | 62 | 0.0 | 4.0 | 0.00 | 0.00 | 0.00 | 27 | 1013.8 |
| 20260902151418 | 88 | 61 | 0.0 | 4.0 | 0.00 | 0.00 | 0.00 | 28 | 1013.8 |
| 20260902150916 | 88 | 61 | 0.0 | 4.0 | 0.00 | 0.00 | 0.00 | 28 | 1013.8 |
| 20260902150418 | 87 | 60 | 0.0 | 7.0 | 0.00 | 0.00 | 0.00 | 28 | 1013.8 |
| 20260902145920 | 87 | 108 | 0.0 | 4.0 | 0.00 | 0.00 | 0.00 | 29 | 1013.8 |
| 20260902145418 | 87 | 117 | 0.0 | 6.0 | 0.00 | 0.00 | 0.00 | 29 | 1013.8 |
| 20260902144920 | 86 | 117 | 3.0 | 7.0 | 0.00 | 0.00 | 0.00 | 30 | 1013.8 |
| 20260902144422 | 86 | 317 | 0.0 | 6.0 | 0.00 | 0.00 | 0.00 | 31 | 1013.8 |
| 20260902143921 | 86 | 98 | 4.0 | 5.0 | 0.00 | 0.00 | 0.00 | 31 | 1013.8 |
| 20260902143418 | 85 | 107 | 4.0 | 7.0 | 0.00 | 0.00 | 0.00 | 32 | 1013.8 |
| 20260902142920 | 85 | 121 | 5.0 | 7.0 | 0.00 | 0.00 | 0.00 | 33 | 1013.8 |
| 20260902142419 | 85 | 111 | 0.0 | 7.0 | 0.00 | 0.00 | 0.00 | 34 | 1013.8 |
| 20260902141911 | 84 | 116 | 4.0 | 8.0 | 0.00 | 0.00 | 0.00 | 35 | 1013.8 |
| 20260902141413 | 84 | 134 | 5.0 | 8.0 | 0.00 | 0.00 | 0.00 | 35 | 1013.8 |
| 20260902140911 | 83 | 113 | 4.0 | 9.0 | 0.00 | 0.00 | 0.00 | 37 | 1013.8 |
| 20260902140408 | 83 | 112 | 7.0 | 8.0 | 0.00 | 0.00 | 0.00 | 38 | 1013.8 |
| 20260902135910 | 83 | 110 | 5.0 | 8.0 | 0.00 | 0.00 | 0.00 | 38 | 1013.8 |
| 20260902135404 | 83 | 130 | 7.0 | 8.0 | 0.00 | 0.00 | 0.00 | 39 | 1013.8 |
| 20260902134906 | 83 | 117 | 6.0 | 6.0 | 0.00 | 0.00 | 0.00 | 39 | 1013.8 |
| 20260902134408 | 83 | 99 | 4.0 | 7.0 | 0.00 | 0.00 | 0.00 | 39 | 1013.8 |
| 20260902133907 | 83 | 109 | 4.0 | 5.0 | 0.00 | 0.00 | 0.00 | 40 | 1013.8 |
| 20260902133408 | 83 | 126 | 0.0 | 5.0 | 0.00 | 0.00 | 0.00 | 40 | 1013.8 |
| 20260902132910 | 83 | 116 | 0.0 | 5.0 | 0.00 | 0.00 | 0.00 | 41 | 1013.8 |
| 20260902132409 | 82 | 117 | 0.0 | 6.0 | 0.00 | 0.00 | 0.00 | 42 | 1013.8 |
| 20260902131911 | 81 | 117 | 3.0 | 6.0 | 0.00 | 0.00 | 0.00 | 43 | 1012.8 |
| 20260902131412 | 81 | 118 | 3.0 | 5.0 | 0.00 | 0.00 | 0.00 | 44 | 1012.8 |
| 20260902130911 | 81 | 119 | 3.0 | 6.0 | 0.00 | 0.00 | 0.00 | 45 | 1012.8 |
| 20260902130413 | 81 | 116 | 3.0 | 4.0 | 0.00 | 0.00 | 0.00 | 45 | 1012.8 |
| 20260902125915 | 81 | 116 | 3.0 | 5.0 | 0.00 | 0.00 | 0.00 | 46 | 1012.8 |
| 20260902125414 | 80 | 115 | 0.0 | 5.0 | 0.00 | 0.00 | 0.00 | 45 | 1012.8 |
| 20260902124915 | 80 | 115 | 3.0 | 6.0 | 0.00 | 0.00 | 0.00 | 45 | 1012.8 |
| 20260902124417 | 80 | 115 | 6.0 | 7.0 | 0.00 | 0.00 | 0.00 | 46 | 1012.8 |
| 20260902123916 | 79 | 114 | 5.0 | 8.0 | 0.00 | 0.00 | 0.00 | 46 | 1012.8 |
| 20260902123418 | 79 | 117 | 6.0 | 7.0 | 0.00 | 0.00 | 0.00 | 47 | 1012.8 |
| 20260902122919 | 79 | 116 | 5.0 | 5.0 | 0.00 | 0.00 | 0.00 | 48 | 1012.8 |
| 20260902122418 | 79 | 117 | 3.0 | 0.0 | 0.00 | 0.00 | 0.00 | 48 | 1012.8 |
| 20260902121920 | 79 | 117 | 0.0 | 5.0 | 0.00 | 0.00 | 0.00 | 49 | 1012.8 |
| 20260902121422 | 79 | 117 | 4.0 | 6.0 | 0.00 | 0.00 | 0.00 | 48 | 1012.8 |
| 20260902120920 | 79 | 117 | 5.0 | 7.0 | 0.00 | 0.00 | 0.00 | 48 | 1012.8 |
| 20260902120422 | 79 | 116 | 5.0 | 6.0 | 0.00 | 0.00 | 0.00 | 48 | 1012.8 |